Location: Strawberry
(33.0916°N, 80.0306°W)
Time: 07:03:37
(UTC+00:00)

BlueWalker 3 - Visible Passes

Search period start: 02 December 2022 00:00
Search period end: 12 December 2022 00:00
Orbit: 500 x 519 km, 53.2° (Epoch: 01 December)

Date Brightness Start Highest point End Pass type
(mag) Time Alt. Az. Time Alt. Az. Time Alt. Az.
08 Dec 4.1 23:50:10 10° NNW 23:51:15 15° N 23:51:15 15° N visible
09 Dec 3.4 23:31:40 10° NNW 23:34:13 22° NNE 23:34:13 22° NNE visible
10 Dec 3.1 23:13:11 10° NNW 23:16:24 24° NE 23:17:26 22° ENE visible
11 Dec 4.9 00:51:35 10° WNW 00:52:20 15° WNW 00:52:20 15° WNW visible
11 Dec 3.0 22:54:41 10° NNW 22:58:00 26° NE 23:01:02 11° E visible
